Time,TemperatureF,DewpointF,PressureIn,WindDirection,WindDirectionDegrees,WindSpeedMPH,WindSpeedGustMPH,Humidity,HourlyPrecipIn,Conditions,Clouds,dailyrainin,SolarRadiationWatts/m^2,SoftwareType,DateUTC
2013-06-27 00:02:00,65.0,44.0,-100.00,SSW,201,2.0,7.0,47,0.00,,,0.00,0.000000,,2013-06-27 07:02:00,
2013-06-27 00:12:00,65.0,44.0,-100.00,SSW,201,2.0,7.0,47,0.00,,,0.00,0.000000,,2013-06-27 07:12:00,
2013-06-27 00:22:00,65.0,44.0,-100.00,SSW,201,2.0,7.0,47,0.00,,,0.00,0.000000,,2013-06-27 07:22:00,
2013-06-27 00:52:00,64.0,43.0,-100.00,West,275,2.0,9.0,46,0.00,,,0.00,0.000000,,2013-06-27 07:52:00,
2013-06-27 01:01:00,64.0,43.0,-100.00,West,275,2.0,9.0,46,0.00,,,0.00,0.000000,,2013-06-27 08:01:00,
2013-06-27 01:11:00,64.0,43.0,-100.00,West,275,2.0,9.0,46,0.00,,,0.00,0.000000,,2013-06-27 08:11:00,
2013-06-27 01:22:00,64.0,43.0,-100.00,West,275,2.0,9.0,46,0.00,,,0.00,0.000000,,2013-06-27 08:22:00,
2013-06-27 01:52:00,64.0,45.0,-100.00,WSW,251,5.0,7.0,50,0.00,,,0.00,0.000000,,2013-06-27 08:52:00,
2013-06-27 02:02:00,64.0,45.0,-100.00,WSW,251,5.0,7.0,50,0.00,,,0.00,0.000000,,2013-06-27 09:02:00,
2013-06-27 02:11:00,64.0,45.0,-100.00,WSW,251,5.0,7.0,50,0.00,,,0.00,0.000000,,2013-06-27 09:11:00,
2013-06-27 02:22:00,64.0,45.0,-100.00,WSW,251,5.0,7.0,50,0.00,,,0.00,0.000000,,2013-06-27 09:22:00,
2013-06-27 02:53:00,61.0,43.0,-100.00,West,264,0.0,11.0,51,0.00,,,0.00,0.000000,,2013-06-27 09:53:00,
2013-06-27 03:01:00,61.0,43.0,-100.00,West,264,0.0,11.0,51,0.00,,,0.00,0.000000,,2013-06-27 10:01:00,
2013-06-27 03:11:00,61.0,43.0,-100.00,West,264,0.0,11.0,51,0.00,,,0.00,0.000000,,2013-06-27 10:11:00,
2013-06-27 03:22:00,61.0,43.0,-100.00,West,264,0.0,11.0,51,0.00,,,0.00,0.000000,,2013-06-27 10:22:00,
2013-06-27 03:54:00,61.0,45.0,-100.00,West,266,0.0,6.0,56,0.00,,,0.00,0.000000,,2013-06-27 10:54:00,
2013-06-27 04:01:00,61.0,45.0,-100.00,West,266,0.0,6.0,56,0.00,,,0.00,0.000000,,2013-06-27 11:01:00,
2013-06-27 04:11:00,61.0,45.0,-100.00,West,266,0.0,6.0,56,0.00,,,0.00,0.000000,,2013-06-27 11:11:00,
2013-06-27 04:21:00,61.0,45.0,-100.00,West,266,0.0,6.0,56,0.00,,,0.00,0.000000,,2013-06-27 11:21:00,
2013-06-27 04:52:00,60.0,43.0,-100.00,SSE,153,0.0,5.0,54,0.00,,,0.00,0.000000,,2013-06-27 11:52:00,
2013-06-27 05:01:00,60.0,43.0,-100.00,SSE,153,0.0,5.0,54,0.00,,,0.00,0.000000,,2013-06-27 12:01:00,
2013-06-27 05:11:00,60.0,43.0,-100.00,SSE,153,0.0,5.0,54,0.00,,,0.00,0.000000,,2013-06-27 12:11:00,
2013-06-27 05:22:00,60.0,43.0,-100.00,SSE,153,0.0,5.0,54,0.00,,,0.00,0.000000,,2013-06-27 12:22:00,
2013-06-27 06:01:00,58.0,45.0,-100.00,East,93,0.0,5.0,62,0.00,,,0.00,0.000000,,2013-06-27 13:01:00,
2013-06-27 06:11:00,58.0,45.0,-100.00,East,93,0.0,5.0,62,0.00,,,0.00,0.000000,,2013-06-27 13:11:00,
2013-06-27 06:22:00,58.0,45.0,-100.00,East,93,0.0,5.0,62,0.00,,,0.00,0.000000,,2013-06-27 13:22:00,
2013-06-27 07:01:00,58.0,55.0,-100.00,NW,323,0.0,6.0,91,0.02,,,0.02,11.000000,,2013-06-27 14:01:00,
2013-06-27 07:11:00,58.0,55.0,-100.00,NW,323,0.0,6.0,91,0.02,,,0.02,11.000000,,2013-06-27 14:11:00,
2013-06-27 07:22:00,58.0,55.0,-100.00,NW,323,0.0,6.0,91,0.02,,,0.02,11.000000,,2013-06-27 14:22:00,
2013-06-27 07:52:00,59.0,59.0,-100.00,SSW,196,0.0,4.0,100,0.01,,,0.03,47.000000,,2013-06-27 14:52:00,
2013-06-27 08:01:00,59.0,59.0,-100.00,SSW,196,0.0,4.0,100,0.01,,,0.03,47.000000,,2013-06-27 15:01:00,
2013-06-27 08:11:00,59.0,59.0,-100.00,SSW,196,0.0,4.0,100,0.01,,,0.03,47.000000,,2013-06-27 15:11:00,
2013-06-27 08:22:00,59.0,59.0,-100.00,SSW,196,0.0,4.0,100,0.01,,,0.03,47.000000,,2013-06-27 15:22:00,
2013-06-27 09:02:00,62.0,52.0,-100.00,ESE,105,0.0,4.0,70,0.00,,,0.03,136.000000,,2013-06-27 16:02:00,
2013-06-27 09:11:00,62.0,52.0,-100.00,ESE,105,0.0,4.0,70,0.00,,,0.03,136.000000,,2013-06-27 16:11:00,
2013-06-27 09:23:00,62.0,52.0,-100.00,ESE,105,0.0,4.0,70,0.00,,,0.03,136.000000,,2013-06-27 16:23:00,
2013-06-27 09:53:00,63.0,54.0,-100.00,NNE,13,0.0,3.0,73,0.00,,,0.03,182.000000,,2013-06-27 16:53:00,
2013-06-27 10:01:00,63.0,54.0,-100.00,NNE,13,0.0,3.0,73,0.00,,,0.03,182.000000,,2013-06-27 17:01:00,
2013-06-27 10:11:00,63.0,54.0,-100.00,NNE,13,0.0,3.0,73,0.00,,,0.03,182.000000,,2013-06-27 17:11:00,
2013-06-27 10:22:00,63.0,54.0,-100.00,NNE,13,0.0,3.0,73,0.00,,,0.03,182.000000,,2013-06-27 17:22:00,
2013-06-27 10:53:00,62.0,51.0,-100.00,ENE,66,0.0,5.0,68,0.00,,,0.03,189.000000,,2013-06-27 17:53:00,
2013-06-27 11:01:00,62.0,51.0,-100.00,ENE,66,0.0,5.0,68,0.00,,,0.03,189.000000,,2013-06-27 18:01:00,
2013-06-27 11:11:00,62.0,51.0,-100.00,ENE,66,0.0,5.0,68,0.00,,,0.03,189.000000,,2013-06-27 18:11:00,
2013-06-27 11:22:00,62.0,51.0,-100.00,ENE,66,0.0,5.0,68,0.00,,,0.03,189.000000,,2013-06-27 18:22:00,
2013-06-27 12:53:00,72.0,53.0,-100.00,East,92,4.0,6.0,52,0.00,,,0.03,655.000000,,2013-06-27 19:53:00,
2013-06-27 13:01:00,72.0,53.0,-100.00,East,92,4.0,6.0,52,0.00,,,0.03,655.000000,,2013-06-27 20:01:00,
2013-06-27 13:11:00,72.0,53.0,-100.00,East,92,4.0,6.0,52,0.00,,,0.03,655.000000,,2013-06-27 20:11:00,
2013-06-27 13:22:00,72.0,53.0,-100.00,East,92,4.0,6.0,52,0.00,,,0.03,655.000000,,2013-06-27 20:22:00,
2013-06-27 13:54:00,73.0,51.0,-100.00,East,81,6.0,7.0,46,0.00,,,0.03,830.000000,,2013-06-27 20:54:00,
2013-06-27 14:13:00,73.0,51.0,-100.00,East,81,6.0,7.0,46,0.00,,,0.03,830.000000,,2013-06-27 21:13:00,
2013-06-27 14:23:00,73.0,51.0,-100.00,East,81,6.0,7.0,46,0.00,,,0.03,830.000000,,2013-06-27 21:23:00,
2013-06-27 14:55:00,78.0,55.0,-100.00,ENE,59,3.0,9.0,45,0.00,,,0.03,907.000000,,2013-06-27 21:55:00,
2013-06-27 15:04:00,78.0,55.0,-100.00,ENE,59,3.0,9.0,45,0.00,,,0.03,907.000000,,2013-06-27 22:04:00,
2013-06-27 15:13:00,78.0,55.0,-100.00,ENE,59,3.0,9.0,45,0.00,,,0.03,907.000000,,2013-06-27 22:13:00,
2013-06-27 15:22:00,78.0,55.0,-100.00,ENE,59,3.0,9.0,45,0.00,,,0.03,907.000000,,2013-06-27 22:22:00,
2013-06-27 15:57:00,77.0,51.0,-100.00,East,91,5.0,8.0,41,0.00,,,0.03,652.000000,,2013-06-27 22:57:00,
2013-06-27 16:03:00,77.0,51.0,-100.00,East,91,5.0,8.0,41,0.00,,,0.03,652.000000,,2013-06-27 23:03:00,
2013-06-27 16:13:00,77.0,51.0,-100.00,East,91,5.0,8.0,41,0.00,,,0.03,652.000000,,2013-06-27 23:13:00,
2013-06-27 16:23:00,77.0,51.0,-100.00,East,91,5.0,8.0,41,0.00,,,0.03,652.000000,,2013-06-27 23:23:00,
2013-06-27 16:25:00,81.0,55.0,-100.00,East,83,1.0,7.0,41,0.00,,,0.03,658.000000,,2013-06-27 23:25:00,
2013-06-27 16:57:00,81.0,55.0,-100.00,East,83,1.0,7.0,41,0.00,,,0.03,658.000000,,2013-06-27 23:57:00,
2013-06-27 17:03:00,81.0,55.0,-100.00,East,83,1.0,7.0,41,0.00,,,0.03,658.000000,,2013-06-28 00:03:00,
2013-06-27 17:13:00,81.0,55.0,-100.00,East,83,1.0,7.0,41,0.00,,,0.03,658.000000,,2013-06-28 00:13:00,
2013-06-27 17:56:00,82.0,54.0,-100.00,East,84,4.0,6.0,38,0.00,,,0.03,646.000000,,2013-06-28 00:56:00,
2013-06-27 18:04:00,82.0,54.0,-100.00,East,84,4.0,6.0,38,0.00,,,0.03,646.000000,,2013-06-28 01:04:00,
2013-06-27 18:12:00,82.0,54.0,-100.00,East,84,4.0,6.0,38,0.00,,,0.03,646.000000,,2013-06-28 01:12:00,
2013-06-27 18:56:00,77.0,53.0,-100.00,NE,49,1.0,6.0,43,0.00,,,0.03,207.000000,,2013-06-28 01:56:00,
2013-06-27 19:04:00,77.0,53.0,-100.00,NE,49,1.0,6.0,43,0.00,,,0.03,207.000000,,2013-06-28 02:04:00,
2013-06-27 19:13:00,77.0,53.0,-100.00,NE,49,1.0,6.0,43,0.00,,,0.03,207.000000,,2013-06-28 02:13:00,
2013-06-27 19:56:00,76.0,54.0,-100.00,NNE,32,0.0,4.0,46,0.00,,,0.03,98.000000,,2013-06-28 02:56:00,
2013-06-27 20:03:00,76.0,54.0,-100.00,NNE,32,0.0,4.0,46,0.00,,,0.03,98.000000,,2013-06-28 03:03:00,
2013-06-27 20:13:00,76.0,54.0,-100.00,NNE,32,0.0,4.0,46,0.00,,,0.03,98.000000,,2013-06-28 03:13:00,
2013-06-27 20:56:00,73.0,55.0,-100.00,WSW,246,2.0,5.0,54,0.00,,,0.03,34.000000,,2013-06-28 03:56:00,
2013-06-27 21:02:00,73.0,55.0,-100.00,WSW,246,2.0,5.0,54,0.00,,,0.03,34.000000,,2013-06-28 04:02:00,
2013-06-27 21:11:00,73.0,55.0,-100.00,WSW,246,2.0,5.0,54,0.00,,,0.03,34.000000,,2013-06-28 04:11:00,
2013-06-27 21:22:00,73.0,55.0,-100.00,WSW,246,2.0,5.0,54,0.00,,,0.03,34.000000,,2013-06-28 04:22:00,
2013-06-27 21:53:00,69.0,53.0,-100.00,ENE,72,0.0,5.0,56,0.00,,,0.03,7.000000,,2013-06-28 04:53:00,
2013-06-27 22:01:00,69.0,53.0,-100.00,ENE,72,0.0,5.0,56,0.00,,,0.03,7.000000,,2013-06-28 05:01:00,
2013-06-27 22:11:00,69.0,53.0,-100.00,ENE,72,0.0,5.0,56,0.00,,,0.03,7.000000,,2013-06-28 05:11:00,
2013-06-27 22:22:00,69.0,53.0,-100.00,ENE,72,0.0,5.0,56,0.00,,,0.03,7.000000,,2013-06-28 05:22:00,
2013-06-27 22:53:00,69.0,55.0,-100.00,NNE,27,1.0,3.0,61,0.00,,,0.03,0.000000,,2013-06-28 05:53:00,
2013-06-27 23:02:00,69.0,55.0,-100.00,NNE,27,1.0,3.0,61,0.00,,,0.03,0.000000,,2013-06-28 06:02:00,
2013-06-27 23:12:00,69.0,55.0,-100.00,NNE,27,1.0,3.0,61,0.00,,,0.03,0.000000,,2013-06-28 06:12:00,
2013-06-27 23:22:00,69.0,55.0,-100.00,NNE,27,1.0,3.0,61,0.00,,,0.03,0.000000,,2013-06-28 06:22:00,
2013-06-27 23:52:00,67.0,54.0,-100.00,NNW,345,1.0,5.0,62,0.00,,,0.03,0.000000,,2013-06-28 06:52:00,